Location: Unspecified
(0.0000°N, 0.0000°E)
Time: 04:37:24
(UTC+00:00)

SEEDS - Pass Details

Date: 02 April 2019
Orbit: 587 x 603 km, 97.5° (Epoch: 17 June)

Event Time Altitude Azimuth Distance (km) Brightness Sun altitude
Rises 05:03:24 0° 46° (NE) 2,804 ? -15.0°
Reaches altitude 10° 05:06:39 10° 75° (ENE) 1,910 ? -14.2°
Maximum altitude 05:08:32 13° 102° (ESE) 1,732 ? -13.8°
Drops below altitude 10° 05:10:26 10° 129° (SE) 1,918 ? -13.3°
Sets 05:13:42 0° 157° (SSE) 2,826 ? -12.5°
